STARLINK-34109, 63807

Orbit data source: Space-Track

STARLINK-34109, 63807 is a payload satellite owned by SpaceX/Seattle (US) in LEO that was launched on Sun, 04 May 2025 UTC via an FALCON 9 launch vehicle from the Air Force Eastern Test Range (AFETR). Payload-class satellites include a variety of spacecraft equipped with specific instruments for various scientific and technological missions. These include communications satellites like Starlink; space stations such as the ISS; scientific satellites like the Hubble; Earth observation satellites from companies like Planet Labs, Umbra, and HawkEye 360; GPS; miniature CubeSats for education and research; and military/defense satellites.

Loading next visibility...
Identifier
63807, 2025-092D
Orbit
LEO
Country
Flag of USUS
Related business
Manufacturer
SpaceX/Seattle
Mission
Operational spacecraft
Bus & Motor
STARLINK V2MO, Unknown motor
Mass
575 kg wet, ~530 kg dry
Launch date (UTC)
2025-05-04 (7 months ago)
Launch vehicle
FALCON 9
Launch site
Air Force Eastern Test Range (AFETR)
Object type
Payload
Rocket body
Debris
Shape & HBR
Unknown shape, 17.7 m
Radar Cross Section
Large (>1 m²)

Expand to show TLE details & history
Last TLE update: 1 day ago

TLE from 1 day ago
0 STARLINK-34109
1 63807U 25092D   25349.25237172  .00029677  00000-0  10834-2 0  9993
2 63807  43.0016 289.1845 0001656 273.9715  86.0947 15.27587966 35704
Epoch: 2025-12-15T06:03Z
TLE epoch observation values (Epoch: 2025-12-15T06:03:24.916Z)
Latitude
-0.00005°
Longitude
114.17703°
Altitude
482.724 km
Speed
7.626 km/s
True Right ascension
19h 16m 44s
True Declination
0° 00' 00"
Sunlit
Object was in daylight at epoch
Visualization orbit readout
Latitude
Unknown
Longitude
Unknown
Altitude
Unknown
Speed
Unknown
Apparent Right ascension
Unknown
Apparent Declination
Unknown
Sunlit
N/A
Visualization observer readout
Local Sidereal Time
14:13:04
Azimuth
Unknown
Elevation
Unknown
Doppler factor
Unknown
Orbital elements
Apogee altitude
486.107 km
Perigee altitude
483.834 km
Semi-major axis
6,863.107 km
Eccentricity
0.00017
Inclination
43.0016°
RAAN
289.1845°
Arg. of periapsis
273.9715°
True anomaly
86.11363°
Mean anomaly
86.0947°
Eccentric anomaly
86.10417°
Mean motion
3.81735 °/min
Orbital period
94.31 mins
BSTAR
0.0010834
Loading maneuver chart data...
Computing Atmospheric mass density...
Loading historical data...
Loading historical data...
Loading historical data...
Loading historical data...
Loading historical data...
Loading historical data...
Loading historical data...

Documentation

Showing up to 5 results
|